[TLELIST] Archives

 

[list_settings.list_name] Current TLEs

July 7th 2011 PDT

HST 1 20580U 90037B 11187.59487351 .00000584 00000-0 31455-4 0 7935 2 20580 028.4708 249.6712 0003231 329.0398 031.0007 15.01414384962571 ISS (ZARYA) 1 25544U 98067A 11188.14258862 .00006826 00000-0 89654-4 0 6653 2 25544 051.6417 060.1833 0010678 296.6593 201.9870 15.59770568724024 CXO 1 25867U 99040B 11176.87500000 -.00000798 +00000-0 +00000-0 0 06224 2 25867 069.4396 031.0885 8620100 276.7614 352.7601 00.37802170007809 ____________________________________________________________________ These 2-Line ...Continue Reading

[list_settings.list_name] Current TLEs

July 6th 2011 PDT

HST 1 20580U 90037B 11184.27121456 .00000604 00000-0 32992-4 0 7927 2 20580 028.4716 271.3826 0003233 292.1478 067.8752 15.01411801962079 ISS (ZARYA) 1 25544U 98067A 11187.40957176 .00006945 00000-0 91150-4 0 6606 2 25544 051.6415 063.8678 0010653 294.0599 045.8433 15.59760372723908 CXO 1 25867U 99040B 11176.87500000 -.00000798 +00000-0 +00000-0 0 06224 2 25867 069.4396 031.0885 8620100 276.7614 352.7601 00.37802170007809 ____________________________________________________________________ These 2-Line ...Continue Reading

[list_settings.list_name] Current TLEs

July 5th 2011 PDT

HST 1 20580U 90037B 11184.27121456 .00000604 00000-0 32992-4 0 7927 2 20580 028.4716 271.3826 0003233 292.1478 067.8752 15.01411801962079 ISS (ZARYA) 1 25544U 98067A 11186.15617101 .00022275 00000-0 27769-3 0 6550 2 25544 051.6410 070.1738 0010897 290.0670 207.1722 15.59753016723717 CXO 1 25867U 99040B 11176.87500000 -.00000798 +00000-0 +00000-0 0 06224 2 25867 069.4396 031.0885 8620100 276.7614 352.7601 00.37802170007809 ____________________________________________________________________ These 2-Line ...Continue Reading

[list_settings.list_name] Current TLEs

July 4th 2011 PDT

HST 1 20580U 90037B 11184.27121456 .00000604 00000-0 32992-4 0 7927 2 20580 028.4716 271.3826 0003233 292.1478 067.8752 15.01411801962079 ISS (ZARYA) 1 25544U 98067A 11185.19540524 .00005622 00000-0 75110-4 0 6503 2 25544 051.6412 075.0032 0010744 285.4143 213.4839 15.59724981723565 CXO 1 25867U 99040B 11176.87500000 -.00000798 +00000-0 +00000-0 0 06224 2 25867 069.4396 031.0885 8620100 276.7614 352.7601 00.37802170007809 ____________________________________________________________________ These 2-Line ...Continue Reading

[list_settings.list_name] Current TLEs

July 3rd 2011 PDT

HST 1 20580U 90037B 11184.27121456 .00000604 00000-0 32992-4 0 7927 2 20580 028.4716 271.3826 0003233 292.1478 067.8752 15.01411801962079 ISS (ZARYA) 1 25544U 98067A 11184.23521764 .00038075 00000-0 46961-3 0 6444 2 25544 051.6414 079.8311 0010739 281.7589 222.1118 15.59732829723417 CXO 1 25867U 99040B 11176.87500000 -.00000798 +00000-0 +00000-0 0 06224 2 25867 069.4396 031.0885 8620100 276.7614 352.7601 00.37802170007809 ____________________________________________________________________ These 2-Line ...Continue Reading

[list_settings.list_name] Current TLEs

July 2nd 2011 PDT

HST 1 20580U 90037B 11182.67585707 .00000664 00000-0 37524-4 0 7913 2 20580 028.4718 281.8037 0003253 275.5680 084.4520 15.01410789961838 ISS (ZARYA) 1 25544U 98067A 11182.54578704 -.00000906 00000-0 -43990-5 0 6357 2 25544 051.6422 088.3226 0007931 293.9966 077.6331 15.60889839723157 CXO 1 25867U 99040B 11176.87500000 -.00000798 +00000-0 +00000-0 0 06224 2 25867 069.4396 031.0885 8620100 276.7614 352.7601 00.37802170007809 ____________________________________________________________________ These 2-Line ...Continue Reading

[list_settings.list_name] Current TLEs

July 1st 2011 PDT

HST 1 20580U 90037B 11181.74523141 .00000725 00000-0 42139-4 0 7909 2 20580 028.4723 287.8837 0003275 265.8685 094.1505 15.01410324961699 ISS (ZARYA) 1 25544U 98067A 11175.33966623 .00024574 00000-0 27855-3 0 5935 2 25544 051.6405 124.6611 0011677 283.7928 224.0636 15.62164010722027 CXO 1 25867U 99040B 11176.87500000 -.00000798 +00000-0 +00000-0 0 06224 2 25867 069.4396 031.0885 8620100 276.7614 352.7601 00.37802170007809 ____________________________________________________________________ These 2-Line ...Continue Reading

[list_settings.list_name] Current TLEs

June 30th 2011 PDT

HST 1 20580U 90037B 11178.75393424 +.00000851 +00000-0 +51666-4 0 07876 2 20580 028.4725 307.4268 0003448 231.6770 128.3526 15.01407684961245 ISS (ZARYA) 1 25544U 98067A 11173.72522157 .00008704 00000-0 10304-3 0 5866 2 25544 051.6432 132.7999 0011050 275.3932 147.3348 15.62100189721778 CXO 1 25867U 99040B 11176.87500000 -.00000798 +00000-0 +00000-0 0 06224 2 25867 069.4396 031.0885 8620100 276.7614 352.7601 00.37802170007809 ____________________________________________________________________ These 2-Line ...Continue Reading

[list_settings.list_name] Current TLEs

June 29th 2011 PDT

HST 1 20580U 90037B 11177.82330943 +.00000847 +00000-0 +51368-4 0 07863 2 20580 028.4725 313.5072 0003509 222.3983 137.6438 15.01406378961106 ISS (ZARYA) 1 25544U 98067A 11178.84164315 +.00006248 +00000-0 +75414-4 0 06149 2 25544 051.6415 106.9878 0011238 296.9546 118.5505 15.62197312722574 CXO 1 25867U 99040B 11176.87500000 -.00000798 +00000-0 +00000-0 0 06224 2 25867 069.4396 031.0885 8620100 276.7614 352.7601 00.37802170007809 ____________________________________________________________________ These 2-Line ...Continue Reading

[list_settings.list_name] Current TLEs

June 28th 2011 PDT

HST 1 20580U 90037B 11175.03142508 +.00000775 +00000-0 +45906-4 0 07852 2 20580 028.4725 331.7433 0003535 193.2905 166.7641 15.01402175960680 ISS (ZARYA) 1 25544U 98067A 11177.87999507 +.00005015 +00000-0 +61773-4 0 06076 2 25544 051.6407 111.8411 0011281 292.5415 111.1513 15.62182172722428 CXO 1 25867U 99040B 11176.87500000 -.00000798 +00000-0 +00000-0 0 06224 2 25867 069.4396 031.0885 8620100 276.7614 352.7601 00.37802170007809 ____________________________________________________________________ These 2-Line ...Continue Reading
  • This mailing list is a public mailing list - anyone may join or leave, at any time.
  • This mailing list is announce-only.

International Space Station (ISS) / Hubble Space Telescope (HST) / Chandra X-Ray Observatory Orbital Data via EMAIL

Privacy Policy:

Private list